| time (UTC) | temp C | wind direction | speed KPH | gust KPH | rain 1hr cm | rain 24hr cm | rain mn cm | humidity % | barometer mb |
| 20260506012055 | 15 | 155 | 12.9 | 19.3 | 0.00 | 0.05 | 0.05 | 46 | 1002.1 |
| 20260506011556 | 15 | 163 | 14.5 | 19.3 | 0.00 | 0.05 | 0.05 | 46 | 1002.0 |
| 20260506011051 | 15 | 167 | 12.9 | 17.7 | 0.00 | 0.05 | 0.05 | 46 | 1001.9 |
| 20260506010549 | 16 | 157 | 14.5 | 22.5 | 0.00 | 0.05 | 0.05 | 46 | 1001.9 |
| 20260506010049 | 16 | 167 | 14.5 | 24.1 | 0.00 | 0.05 | 0.05 | 45 | 1001.9 |
| 20260506005547 | 16 | 181 | 6.4 | 12.9 | 0.00 | 0.05 | 0.05 | 44 | 1001.9 |
| 20260506005048 | 16 | 145 | 9.7 | 17.7 | 0.00 | 0.05 | 0.05 | 44 | 1001.9 |
| 20260506004544 | 16 | 139 | 8.0 | 17.7 | 0.00 | 0.05 | 0.05 | 44 | 1001.9 |
| 20260506004042 | 16 | 188 | 3.2 | 16.1 | 0.00 | 0.05 | 0.05 | 44 | 1001.9 |
| 20260506003541 | 16 | 137 | 11.3 | 19.3 | 0.00 | 0.05 | 0.05 | 44 | 1001.9 |
| 20260506003040 | 16 | 181 | 12.9 | 24.1 | 0.00 | 0.05 | 0.05 | 44 | 1001.7 |
| 20260506002538 | 16 | 118 | 9.7 | 17.7 | 0.00 | 0.05 | 0.05 | 43 | 1001.8 |
| 20260506002036 | 16 | 139 | 9.7 | 17.7 | 0.00 | 0.05 | 0.05 | 44 | 1001.7 |
| 20260506001535 | 16 | 129 | 8.0 | 19.3 | 0.00 | 0.05 | 0.05 | 43 | 1001.7 |
| 20260506001033 | 16 | 132 | 11.3 | 17.7 | 0.00 | 0.05 | 0.05 | 44 | 1001.7 |
| 20260506000532 | 16 | 129 | 11.3 | 16.1 | 0.00 | 0.05 | 0.05 | 44 | 1001.6 |
| 20260506000030 | 16 | 182 | 12.9 | 17.7 | 0.00 | 0.05 | 0.05 | 44 | 1001.7 |
| 20260505235529 | 16 | 180 | 4.8 | 14.5 | 0.00 | 0.05 | 0.05 | 44 | 1001.6 |
| 20260505235027 | 16 | 173 | 9.7 | 14.5 | 0.00 | 0.05 | 0.05 | 43 | 1001.7 |
| 20260505234526 | 17 | 204 | 4.8 | 11.3 | 0.00 | 0.05 | 0.05 | 43 | 1001.7 |
| 20260505234025 | 16 | 209 | 1.6 | 8.0 | 0.00 | 0.05 | 0.05 | 44 | 1001.7 |
| 20260505233527 | 16 | 240 | 0.0 | 14.5 | 0.00 | 0.05 | 0.05 | 44 | 1001.7 |
| 20260505233027 | 16 | 244 | 6.4 | 14.5 | 0.00 | 0.05 | 0.05 | 46 | 1001.7 |
| 20260505232521 | 16 | 194 | 1.6 | 12.9 | 0.00 | 0.05 | 0.05 | 44 | 1001.7 |
| 20260505232022 | 16 | 278 | 0.0 | 0.0 | 0.00 | 0.05 | 0.05 | 44 | 1001.7 |
| 20260505231523 | 16 | 225 | 0.0 | 3.2 | 0.00 | 0.05 | 0.05 | 44 | 1001.8 |
| 20260505231020 | 16 | 225 | 0.0 | 11.3 | 0.00 | 0.05 | 0.05 | 45 | 1001.7 |
| 20260505230520 | 16 | 225 | 3.2 | 11.3 | 0.00 | 0.05 | 0.05 | 45 | 1001.7 |
| 20260505230020 | 15 | 202 | 3.2 | 9.7 | 0.00 | 0.05 | 0.05 | 45 | 1001.7 |
| 20260505225518 | 15 | 230 | 0.0 | 9.7 | 0.00 | 0.05 | 0.05 | 45 | 1001.7 |
| 20260505225017 | 15 | 170 | 1.6 | 12.9 | 0.00 | 0.05 | 0.05 | 44 | 1001.8 |
| 20260505224516 | 15 | 222 | 3.2 | 16.1 | 0.00 | 0.05 | 0.05 | 44 | 1001.8 |
| 20260505224013 | 16 | 245 | 6.4 | 16.1 | 0.00 | 0.05 | 0.05 | 45 | 1001.8 |
| 20260505223512 | 15 | 240 | 3.2 | 11.3 | 0.00 | 0.05 | 0.05 | 45 | 1001.8 |
| 20260505223011 | 15 | 217 | 4.8 | 11.3 | 0.00 | 0.05 | 0.05 | 44 | 1001.9 |
| 20260505222512 | 15 | 249 | 3.2 | 11.3 | 0.00 | 0.05 | 0.05 | 46 | 1001.9 |
| 20260505222008 | 15 | 325 | 1.6 | 9.7 | 0.00 | 0.05 | 0.05 | 45 | 1002.0 |
| 20260505221507 | 15 | 273 | 3.2 | 9.7 | 0.00 | 0.05 | 0.05 | 45 | 1002.0 |
| 20260505221007 | 15 | 359 | 0.0 | 6.4 | 0.00 | 0.05 | 0.05 | 45 | 1002.0 |
| 20260505220503 | 15 | 359 | 1.6 | 9.7 | 0.00 | 0.05 | 0.05 | 44 | 1002.1 |
| 20260505220006 | 15 | 276 | 1.6 | 9.7 | 0.00 | 0.05 | 0.05 | 44 | 1002.1 |
| 20260505215601 | 15 | 309 | 3.2 | 9.7 | 0.00 | 0.05 | 0.05 | 44 | 1002.1 |
| 20260505215059 | 15 | 18 | 1.6 | 12.9 | 0.00 | 0.05 | 0.05 | 45 | 1002.0 |
| 20260505214607 | 15 | 326 | 0.0 | 19.3 | 0.00 | 0.05 | 0.05 | 45 | 1002.1 |
| 20260505214057 | 15 | 329 | 4.8 | 19.3 | 0.00 | 0.05 | 0.05 | 44 | 1002.1 |
| 20260505213555 | 15 | 60 | 3.2 | 17.7 | 0.00 | 0.05 | 0.05 | 44 | 1002.1 |
| 20260505213054 | 16 | 299 | 0.0 | 9.7 | 0.00 | 0.05 | 0.05 | 44 | 1002.1 |
| 20260505212553 | 15 | 101 | 3.2 | 14.5 | 0.00 | 0.05 | 0.05 | 45 | 1002.2 |
| 20260505212051 | 15 | 124 | 4.8 | 19.3 | 0.00 | 0.05 | 0.05 | 44 | 1002.2 |
| 20260505211600 | 16 | 179 | 11.3 | 19.3 | 0.00 | 0.05 | 0.05 | 44 | 1002.3 |
| 20260505211050 | 16 | 191 | 1.6 | 14.5 | 0.00 | 0.05 | 0.05 | 44 | 1002.2 |
| 20260505210549 | 16 | 332 | 3.2 | 19.3 | 0.00 | 0.05 | 0.05 | 44 | 1002.2 |
| 20260505210053 | 15 | 85 | 6.4 | 22.5 | 0.00 | 0.05 | 0.05 | 44 | 1002.4 |
| 20260505205548 | 16 | 186 | 8.0 | 17.7 | 0.00 | 0.05 | 0.05 | 44 | 1002.4 |
| 20260505205048 | 16 | 157 | 3.2 | 16.1 | 0.00 | 0.05 | 0.05 | 46 | 1002.4 |
| 20260505204544 | 15 | 68 | 4.8 | 20.9 | 0.00 | 0.05 | 0.05 | 45 | 1002.5 |
| 20260505204044 | 15 | 122 | 9.7 | 20.9 | 0.00 | 0.05 | 0.05 | 45 | 1002.6 |
| 20260505203542 | 15 | 107 | 6.4 | 17.7 | 0.00 | 0.05 | 0.05 | 47 | 1002.6 |
| 20260505203040 | 14 | 105 | 9.7 | 17.7 | 0.00 | 0.05 | 0.05 | 48 | 1002.5 |
| 20260505202539 | 14 | 137 | 9.7 | 16.1 | 0.00 | 0.05 | 0.05 | 47 | 1002.6 |
| 20260505202037 | 15 | 149 | 6.4 | 16.1 | 0.00 | 0.05 | 0.05 | 46 | 1002.6 |
| 20260505201536 | 15 | 122 | 6.4 | 16.1 | 0.00 | 0.05 | 0.05 | 45 | 1002.7 |
| 20260505201038 | 15 | 196 | 8.0 | 16.1 | 0.00 | 0.05 | 0.05 | 45 | 1002.6 |
| 20260505200533 | 15 | 128 | 8.0 | 19.3 | 0.00 | 0.05 | 0.05 | 46 | 1002.7 |
| 20260505200037 | 15 | 131 | 8.0 | 19.3 | 0.00 | 0.05 | 0.05 | 46 | 1002.6 |
| 20260505195529 | 14 | 153 | 12.9 | 19.3 | 0.00 | 0.05 | 0.05 | 46 | 1002.6 |
| 20260505195028 | 14 | 152 | 8.0 | 17.7 | 0.00 | 0.05 | 0.05 | 46 | 1002.7 |
| 20260505194527 | 14 | 134 | 9.7 | 17.7 | 0.00 | 0.05 | 0.05 | 46 | 1002.8 |
| 20260505194025 | 15 | 130 | 11.3 | 22.5 | 0.00 | 0.05 | 0.05 | 46 | 1002.8 |
| 20260505193524 | 14 | 115 | 9.7 | 22.5 | 0.00 | 0.05 | 0.05 | 46 | 1002.7 |
| 20260505193022 | 14 | 135 | 6.4 | 17.7 | 0.00 | 0.05 | 0.05 | 46 | 1002.8 |
| 20260505192522 | 14 | 128 | 12.9 | 20.9 | 0.00 | 0.05 | 0.05 | 46 | 1002.9 |
| 20260505192019 | 14 | 140 | 12.9 | 20.9 | 0.00 | 0.05 | 0.05 | 47 | 1002.8 |
| 20260505191526 | 13 | 120 | 14.5 | 19.3 | 0.00 | 0.05 | 0.05 | 47 | 1002.8 |
| 20260505191016 | 13 | 111 | 9.7 | 20.9 | 0.00 | 0.05 | 0.05 | 47 | 1002.8 |
| 20260505190518 | 13 | 124 | 11.3 | 24.1 | 0.00 | 0.05 | 0.05 | 47 | 1002.7 |
| 20260505190013 | 13 | 84 | 9.7 | 24.1 | 0.00 | 0.05 | 0.05 | 47 | 1002.8 |
| 20260505185512 | 13 | 109 | 14.5 | 22.5 | 0.00 | 0.05 | 0.05 | 48 | 1002.8 |
| 20260505185011 | 13 | 128 | 12.9 | 22.5 | 0.00 | 0.05 | 0.05 | 48 | 1002.9 |
| 20260505184510 | 13 | 91 | 9.7 | 24.1 | 0.00 | 0.05 | 0.05 | 47 | 1002.9 |
| 20260505184009 | 13 | 116 | 14.5 | 22.5 | 0.00 | 0.05 | 0.05 | 48 | 1003.0 |
| 20260505183507 | 13 | 130 | 16.1 | 22.5 | 0.00 | 0.05 | 0.05 | 48 | 1002.9 |
| 20260505183006 | 13 | 157 | 16.1 | 25.7 | 0.00 | 0.05 | 0.05 | 48 | 1003.0 |
| 20260505182505 | 13 | 143 | 14.5 | 25.7 | 0.00 | 0.05 | 0.05 | 47 | 1003.0 |
| 20260505182003 | 13 | 133 | 17.7 | 27.4 | 0.00 | 0.05 | 0.05 | 47 | 1002.9 |
| 20260505181502 | 13 | 115 | 16.1 | 25.7 | 0.00 | 0.05 | 0.05 | 47 | 1003.0 |
| 20260505181101 | 13 | 157 | 14.5 | 25.7 | 0.00 | 0.05 | 0.05 | 47 | 1003.0 |
| 20260505180558 | 13 | 138 | 14.5 | 22.5 | 0.00 | 0.05 | 0.05 | 48 | 1003.0 |
| 20260505180057 | 12 | 159 | 11.3 | 24.1 | 0.00 | 0.05 | 0.05 | 47 | 1002.9 |
| 20260505175555 | 13 | 134 | 12.9 | 24.1 | 0.00 | 0.05 | 0.05 | 48 | 1002.9 |
| 20260505175054 | 13 | 184 | 14.5 | 22.5 | 0.00 | 0.05 | 0.05 | 48 | 1002.9 |
| 20260505174601 | 13 | 157 | 17.7 | 24.1 | 0.00 | 0.05 | 0.05 | 49 | 1002.9 |
| 20260505174051 | 13 | 151 | 16.1 | 24.1 | 0.00 | 0.05 | 0.05 | 49 | 1002.9 |
| 20260505173551 | 13 | 134 | 14.5 | 24.1 | 0.00 | 0.05 | 0.05 | 49 | 1002.9 |
| 20260505173051 | 13 | 153 | 14.5 | 24.1 | 0.00 | 0.05 | 0.05 | 50 | 1002.9 |
| 20260505172547 | 12 | 158 | 14.5 | 24.1 | 0.00 | 0.05 | 0.05 | 50 | 1002.8 |
| 20260505172046 | 12 | 151 | 14.5 | 22.5 | 0.00 | 0.05 | 0.05 | 49 | 1003.0 |
| 20260505171544 | 12 | 159 | 12.9 | 19.3 | 0.00 | 0.05 | 0.05 | 49 | 1003.0 |
| 20260505171043 | 11 | 156 | 12.9 | 17.7 | 0.00 | 0.05 | 0.05 | 49 | 1003.0 |
| 20260505170541 | 11 | 164 | 11.3 | 16.1 | 0.00 | 0.05 | 0.05 | 48 | 1003.0 |
| 20260505170040 | 11 | 153 | 11.3 | 17.7 | 0.00 | 0.05 | 0.05 | 46 | 1003.0 |
| 20260505165541 | 11 | 178 | 9.7 | 17.7 | 0.00 | 0.05 | 0.05 | 46 | 1003.0 |
| 20260505165037 | 11 | 176 | 8.0 | 17.7 | 0.00 | 0.05 | 0.05 | 46 | 1003.0 |
| 20260505164535 | 10 | 191 | 12.9 | 16.1 | 0.00 | 0.05 | 0.05 | 46 | 1003.1 |
| 20260505164035 | 10 | 184 | 8.0 | 12.9 | 0.00 | 0.05 | 0.05 | 41 | 1003.1 |
| 20260505163532 | 10 | 188 | 4.8 | 9.7 | 0.00 | 0.05 | 0.05 | 31 | 1003.2 |
| 20260505163032 | 10 | 188 | 4.8 | 9.7 | 0.00 | 0.05 | 0.05 | 31 | 1003.2 |
| 20260505162530 | 10 | 203 | 4.8 | 12.9 | 0.00 | 0.05 | 0.05 | 32 | 1003.2 |
| 20260505162028 | 10 | 192 | 8.0 | 16.1 | 0.00 | 0.05 | 0.05 | 35 | 1003.2 |
| 20260505161538 | 10 | 186 | 9.7 | 16.1 | 0.00 | 0.05 | 0.05 | 36 | 1003.2 |
| 20260505161025 | 10 | 167 | 11.3 | 14.5 | 0.00 | 0.05 | 0.05 | 40 | 1003.0 |
| 20260505160526 | 10 | 174 | 9.7 | 14.5 | 0.00 | 0.05 | 0.05 | 41 | 1003.0 |
| 20260505153015 | 10 | 145 | 8.0 | 19.3 | 0.00 | 0.05 | 0.05 | 48 | 1002.8 |
| 20260505152512 | 10 | 149 | 8.0 | 14.5 | 0.00 | 0.05 | 0.05 | 48 | 1002.8 |
| 20260505152010 | 10 | 158 | 6.4 | 14.5 | 0.00 | 0.05 | 0.05 | 48 | 1002.9 |
| 20260505151508 | 10 | 182 | 4.8 | 11.3 | 0.00 | 0.05 | 0.05 | 45 | 1002.8 |
| 20260505151006 | 10 | 201 | 0.0 | 12.9 | 0.00 | 0.05 | 0.05 | 43 | 1002.9 |
| 20260505150505 | 10 | 201 | 3.2 | 12.9 | 0.00 | 0.05 | 0.05 | 43 | 1002.8 |
| 20260505140547 | 9 | 279 | 3.2 | 6.4 | 0.00 | 0.05 | 0.05 | 22 | 1002.9 |
| 20260505125026 | 8 | 135 | 1.6 | 4.8 | 0.00 | 0.05 | 0.05 | 1 | 1001.9 |
| 20260505124525 | 8 | 135 | 1.6 | 6.4 | 0.00 | 0.05 | 0.05 | 1 | 1001.9 |
| 20260505124027 | 8 | 135 | 1.6 | 6.4 | 0.00 | 0.05 | 0.05 | 1 | 1001.9 |
| 20260505123521 | 8 | 135 | 1.6 | 6.4 | 0.00 | 0.05 | 0.05 | 1 | 1001.9 |
| 20260505123021 | 8 | 135 | 3.2 | 9.7 | 0.00 | 0.05 | 0.05 | 1 | 1001.8 |
| 20260505122520 | 8 | 138 | 4.8 | 9.7 | 0.00 | 0.05 | 0.05 | 1 | 1001.8 |
| 20260505122021 | 8 | 138 | 4.8 | 9.7 | 0.00 | 0.05 | 0.05 | 1 | 1001.9 |
| 20260505121530 | 8 | 138 | 4.8 | 11.3 | 0.00 | 0.05 | 0.05 | 1 | 1001.8 |
| 20260505121015 | 8 | 171 | 6.4 | 11.3 | 0.00 | 0.05 | 0.05 | 1 | 1001.8 |
| 20260505120517 | 9 | 153 | 8.0 | 12.9 | 0.00 | 0.05 | 0.05 | 1 | 1001.7 |
| 20260505120011 | 8 | 179 | 8.0 | 12.9 | 0.00 | 0.05 | 0.05 | 1 | 1001.7 |
| 20260505115510 | 8 | 158 | 6.4 | 12.9 | 0.00 | 0.05 | 0.05 | 1 | 1001.7 |
| 20260505115008 | 8 | 190 | 4.8 | 9.7 | 0.00 | 0.05 | 0.05 | 1 | 1001.6 |
| 20260505114507 | 8 | 190 | 4.8 | 8.0 | 0.00 | 0.05 | 0.05 | 1 | 1001.5 |
| 20260505114006 | 8 | 190 | 1.6 | 8.0 | 0.00 | 0.05 | 0.05 | 1 | 1001.5 |
| 20260505113503 | 8 | 190 | 3.2 | 9.7 | 0.00 | 0.05 | 0.05 | 1 | 1001.6 |
| 20260505113003 | 8 | 200 | 6.4 | 9.7 | 0.00 | 0.05 | 0.05 | 1 | 1001.5 |
| 20260505112501 | 8 | 176 | 4.8 | 12.9 | 0.00 | 0.05 | 0.05 | 1 | 1001.4 |
| 20260505112100 | 8 | 161 | 8.0 | 12.9 | 0.00 | 0.05 | 0.05 | 1 | 1001.5 |
| 20260505111558 | 8 | 159 | 6.4 | 11.3 | 0.00 | 0.05 | 0.05 | 1 | 1001.4 |
| 20260505111057 | 8 | 188 | 3.2 | 8.0 | 0.00 | 0.05 | 0.05 | 1 | 1001.3 |
| 20260505110558 | 8 | 187 | 1.6 | 9.7 | 0.00 | 0.05 | 0.05 | 1 | 1001.3 |
| 20260505110105 | 8 | 188 | 4.8 | 11.3 | 0.00 | 0.05 | 0.05 | 1 | 1001.3 |
| 20260505102042 | 8 | 130 | 4.8 | 8.0 | 0.03 | 0.05 | 0.05 | 1 | 1001.4 |
| 20260505101548 | 8 | 130 | 4.8 | 8.0 | 0.03 | 0.05 | 0.05 | 1 | 1001.4 |
| 20260505101040 | 8 | 108 | 3.2 | 6.4 | 0.03 | 0.05 | 0.05 | 1 | 1001.2 |
| 20260505100540 | 8 | 108 | 3.2 | 6.4 | 0.03 | 0.05 | 0.05 | 1 | 1001.3 |
| 20260505100036 | 8 | 108 | 4.8 | 11.3 | 0.03 | 0.05 | 0.05 | 1 | 1001.3 |
| 20260505095538 | 8 | 93 | 3.2 | 11.3 | 0.03 | 0.05 | 0.05 | 1 | 1001.5 |
| 20260505095033 | 9 | 118 | 6.4 | 11.3 | 0.03 | 0.05 | 0.05 | 1 | 1001.5 |
| 20260505094531 | 9 | 111 | 6.4 | 11.3 | 0.03 | 0.05 | 0.05 | 1 | 1001.6 |
| 20260505094030 | 10 | 123 | 4.8 | 8.0 | 0.03 | 0.05 | 0.05 | 1 | 1001.6 |
| 20260505093528 | 9 | 175 | 3.2 | 9.7 | 0.03 | 0.05 | 0.05 | 1 | 1001.6 |
| 20260505093027 | 9 | 261 | 0.0 | 9.7 | 0.03 | 0.03 | 0.03 | 1 | 1001.6 |
| 20260505092528 | 8 | 359 | 1.6 | 6.4 | 0.03 | 0.03 | 0.03 | 1 | 1001.7 |
| 20260505092025 | 9 | 191 | 1.6 | 4.8 | 0.03 | 0.03 | 0.03 | 1 | 1001.9 |
| 20260505091523 | 9 | 191 | 0.0 | 3.2 | 0.03 | 0.03 | 0.03 | 1 | 1002.0 |
| 20260505091022 | 9 | 191 | 0.0 | 3.2 | 0.03 | 0.03 | 0.03 | 1 | 1002.1 |
| 20260505090521 | 9 | 191 | 0.0 | 0.0 | 0.03 | 0.03 | 0.03 | 1 | 1002.2 |
| 20260505090035 | 9 | 191 | 0.0 | 4.8 | 0.03 | 0.03 | 0.03 | 1 | 1002.3 |
| 20260505085517 | 9 | 191 | 0.0 | 6.4 | 0.03 | 0.03 | 0.03 | 1 | 1002.5 |
| 20260505085016 | 9 | 191 | 3.2 | 4.8 | 0.03 | 0.03 | 0.03 | 1 | 1002.6 |
| 20260505084514 | 9 | 191 | 0.0 | 6.4 | 0.03 | 0.03 | 0.03 | 1 | 1002.7 |
| 20260505084012 | 9 | 191 | 1.6 | 6.4 | 0.03 | 0.03 | 0.03 | 1 | 1002.7 |
| 20260505083513 | 9 | 191 | 0.0 | 6.4 | 0.03 | 0.03 | 0.03 | 1 | 1002.5 |
| 20260505083010 | 9 | 191 | 1.6 | 11.3 | 0.00 | 0.00 | 0.00 | 1 | 1002.6 |
| 20260505082512 | 9 | 191 | 4.8 | 16.1 | 0.00 | 0.00 | 0.00 | 1 | 1002.7 |
| 20260505082008 | 9 | 126 | 8.0 | 16.1 | 0.00 | 0.00 | 0.00 | 1 | 1002.6 |
| 20260505081506 | 9 | 147 | 9.7 | 14.5 | 0.00 | 0.00 | 0.00 | 1 | 1002.7 |
| 20260505081008 | 9 | 140 | 8.0 | 11.3 | 0.00 | 0.00 | 0.00 | 1 | 1002.7 |
| 20260505080503 | 9 | 166 | 6.4 | 9.7 | 0.00 | 0.00 | 0.00 | 1 | 1002.7 |
| 20260505075501 | 10 | 164 | 8.0 | 9.7 | 0.00 | 0.00 | 0.00 | 1 | 1002.8 |
| 20260505075100 | 10 | 183 | 6.4 | 9.7 | 0.00 | 0.00 | 0.00 | 1 | 1002.8 |
| 20260505074559 | 9 | 138 | 1.6 | 8.0 | 0.00 | 0.00 | 0.00 | 1 | 1002.7 |
| 20260505074059 | 9 | 138 | 3.2 | 8.0 | 0.00 | 0.00 | 0.00 | 1 | 1002.7 |
| 20260505073558 | 9 | 138 | 3.2 | 12.9 | 0.00 | 0.00 | 0.00 | 1 | 1002.8 |
| 20260505073056 | 10 | 138 | 6.4 | 14.5 | 0.00 | 0.00 | 0.00 | 1 | 1002.8 |
| 20260505072554 | 10 | 130 | 6.4 | 14.5 | 0.00 | 0.00 | 0.00 | 1 | 1002.8 |
| 20260505072051 | 10 | 113 | 9.7 | 16.1 | 0.00 | 0.00 | 0.00 | 1 | 1002.8 |
| 20260505071552 | 10 | 142 | 9.7 | 16.1 | 0.00 | 0.00 | 0.00 | 1 | 1002.8 |
| 20260505071048 | 10 | 179 | 11.3 | 16.1 | 0.00 | 0.00 | 0.00 | 1 | 1002.8 |
| 20260505070547 | 10 | 174 | 8.0 | 16.1 | 0.00 | 0.00 | 0.00 | 1 | 1002.8 |
| 20260505070045 | 10 | 196 | 6.4 | 11.3 | 0.00 | 0.00 | 0.00 | 1 | 1002.7 |
| 20260505065544 | 10 | 182 | 6.4 | 17.7 | 0.00 | 0.00 | 0.00 | 1 | 1002.5 |
| 20260505065042 | 11 | 168 | 9.7 | 22.5 | 0.00 | 0.00 | 0.00 | 10 | 1002.5 |
| 20260505064543 | 11 | 154 | 14.5 | 25.7 | 0.00 | 0.00 | 0.00 | 27 | 1002.5 |
| 20260505064040 | 11 | 161 | 16.1 | 25.7 | 0.00 | 0.00 | 0.00 | 31 | 1002.4 |
| 20260505063540 | 11 | 152 | 20.9 | 25.7 | 0.00 | 0.00 | 0.00 | 28 | 1002.4 |
| 20260505063040 | 11 | 132 | 17.7 | 24.1 | 0.00 | 0.00 | 0.00 | 27 | 1002.3 |
| 20260505062539 | 11 | 140 | 16.1 | 22.5 | 0.00 | 0.00 | 0.00 | 27 | 1002.4 |
| 20260505062040 | 11 | 135 | 16.1 | 24.1 | 0.00 | 0.00 | 0.00 | 27 | 1002.4 |
| 20260505061538 | 11 | 153 | 17.7 | 24.1 | 0.00 | 0.00 | 0.00 | 29 | 1002.4 |
| 20260505061034 | 11 | 133 | 12.9 | 24.1 | 0.00 | 0.00 | 0.00 | 32 | 1002.4 |
| 20260505060533 | 11 | 105 | 16.1 | 24.1 | 0.00 | 0.00 | 0.00 | 31 | 1002.5 |
| 20260505060036 | 11 | 113 | 14.5 | 24.1 | 0.00 | 0.00 | 0.00 | 31 | 1002.6 |
| 20260505055532 | 11 | 134 | 14.5 | 27.4 | 0.00 | 0.00 | 0.00 | 30 | 1002.5 |
| 20260505055032 | 11 | 132 | 16.1 | 22.5 | 0.00 | 0.00 | 0.00 | 29 | 1002.4 |
| 20260505054533 | 11 | 107 | 14.5 | 24.1 | 0.00 | 0.00 | 0.00 | 27 | 1002.4 |
| 20260505054031 | 11 | 122 | 16.1 | 25.7 | 0.00 | 0.00 | 0.00 | 26 | 1002.3 |
| 20260505053532 | 11 | 126 | 16.1 | 22.5 | 0.00 | 0.00 | 0.00 | 24 | 1002.3 |
| 20260505053035 | 11 | 120 | 17.7 | 22.5 | 0.00 | 0.00 | 0.00 | 23 | 1002.3 |
| 20260505052531 | 11 | 154 | 12.9 | 25.7 | 0.00 | 0.00 | 0.00 | 22 | 1002.3 |
| 20260505052031 | 11 | 128 | 16.1 | 27.4 | 0.00 | 0.00 | 0.00 | 19 | 1002.4 |
| 20260505051531 | 11 | 108 | 17.7 | 27.4 | 0.00 | 0.00 | 0.00 | 17 | 1002.3 |
| 20260505051030 | 11 | 146 | 14.5 | 24.1 | 0.00 | 0.00 | 0.00 | 14 | 1002.4 |
| 20260505050530 | 11 | 150 | 17.7 | 24.1 | 0.00 | 0.00 | 0.00 | 17 | 1002.4 |
| 20260505041525 | 12 | 132 | 20.9 | 32.2 | 0.00 | 0.00 | 0.00 | 48 | 1001.8 |
| 20260505041026 | 13 | 149 | 22.5 | 35.4 | 0.00 | 0.00 | 0.00 | 51 | 1001.6 |
| 20260505040524 | 13 | 142 | 24.1 | 37.0 | 0.00 | 0.00 | 0.00 | 52 | 1001.3 |
| 20260505040023 | 13 | 140 | 20.9 | 32.2 | 0.00 | 0.00 | 0.00 | 52 | 1000.9 |
| 20260505035526 | 13 | 135 | 20.9 | 32.2 | 0.00 | 0.00 | 0.00 | 52 | 1000.9 |
| 20260505035023 | 13 | 133 | 14.5 | 22.5 | 0.00 | 0.00 | 0.00 | 52 | 1000.8 |
| 20260505034524 | 13 | 127 | 12.9 | 22.5 | 0.00 | 0.00 | 0.00 | 52 | 1000.6 |
| 20260505034023 | 13 | 105 | 14.5 | 19.3 | 0.00 | 0.00 | 0.00 | 52 | 1000.6 |
| 20260505033525 | 13 | 130 | 14.5 | 19.3 | 0.00 | 0.00 | 0.00 | 52 | 1000.5 |
| 20260505033033 | 13 | 149 | 8.0 | 12.9 | 0.00 | 0.00 | 0.00 | 52 | 1000.6 |
| 20260505032623 | 13 | 151 | 8.0 | 16.1 | 0.00 | 0.00 | 0.00 | 52 | 1000.5 |
| 20260505032023 | 13 | 135 | 8.0 | 14.5 | 0.00 | 0.00 | 0.00 | 52 | 1000.5 |
| 20260505031523 | 13 | 112 | 4.8 | 17.7 | 0.00 | 0.00 | 0.00 | 52 | 1000.3 |
| 20260505031022 | 13 | 152 | 9.7 | 25.7 | 0.00 | 0.00 | 0.00 | 52 | 1000.2 |
| 20260505030521 | 14 | 134 | 12.9 | 25.7 | 0.00 | 0.00 | 0.00 | 52 | 1000.2 |
| 20260505030021 | 14 | 138 | 14.5 | 25.7 | 0.00 | 0.00 | 0.00 | 51 | 1000.2 |
| 20260505025521 | 14 | 135 | 16.1 | 27.4 | 0.00 | 0.00 | 0.00 | 51 | 1000.1 |
| 20260505025021 | 14 | 157 | 16.1 | 27.4 | 0.00 | 0.00 | 0.00 | 51 | 1000.1 |
| 20260505024527 | 14 | 136 | 14.5 | 20.9 | 0.00 | 0.00 | 0.00 | 51 | 1000.1 |
| 20260505024022 | 14 | 165 | 14.5 | 30.6 | 0.00 | 0.00 | 0.00 | 51 | 1000.1 |
| 20260505023520 | 14 | 140 | 19.3 | 35.4 | 0.00 | 0.00 | 0.00 | 51 | 1000.1 |
| 20260505023031 | 15 | 159 | 22.5 | 33.8 | 0.00 | 0.00 | 0.00 | 50 | 1000.0 |
| 20260505022520 | 15 | 159 | 24.1 | 33.8 | 0.00 | 0.00 | 0.00 | 49 | 999.9 |
| 20260505022020 | 15 | 175 | 24.1 | 35.4 | 0.00 | 0.00 | 0.00 | 48 | 999.9 |
| 20260505021519 | 16 | 177 | 25.7 | 30.6 | 0.00 | 0.00 | 0.00 | 47 | 999.8 |
| 20260505021021 | 16 | 160 | 22.5 | 37.0 | 0.00 | 0.00 | 0.00 | 45 | 999.9 |
| 20260505020518 | 17 | 168 | 24.1 | 37.0 | 0.00 | 0.00 | 0.00 | 43 | 999.8 |
| 20260505020019 | 17 | 153 | 16.1 | 25.7 | 0.00 | 0.00 | 0.00 | 40 | 999.6 |
| 20260505015620 | 17 | 145 | 17.7 | 25.7 | 0.00 | 0.00 | 0.00 | 39 | 999.4 |
| 20260505015018 | 17 | 142 | 14.5 | 20.9 | 0.00 | 0.00 | 0.00 | 38 | 999.2 |
| 20260505014531 | 18 | 135 | 14.5 | 20.9 | 0.00 | 0.00 | 0.00 | 38 | 999.2 |
| 20260505014018 | 18 | 130 | 11.3 | 17.7 | 0.00 | 0.00 | 0.00 | 37 | 999.1 |
| 20260505013516 | 18 | 122 | 9.7 | 16.1 | 0.00 | 0.00 | 0.00 | 37 | 999.1 |
| 20260505013017 | 18 | 157 | 8.0 | 12.9 | 0.00 | 0.00 | 0.00 | 37 | 999.0 |